KC4WTI Weather Reports


time (UTC)temp
C
wind
direction
speed
KPH
gust
KPH
rain 1hr
cm
rain 24hr
cm
rain mn
cm
humidity
%
barometer
mb
20260504235110 24 215 6.4 20.9 0.00 0.00 0.00 41 1009.1
20260504234610 24 282 6.4 20.9 0.00 0.00 0.00 40 1009.1
20260504234338 25 178 6.4 17.7 0.00 0.00 0.00 39 1009.1
20260504233558 25 290 6.4 16.1 0.00 0.00 0.00 39 1009.1
20260504233052 25 238 6.4 22.5 0.00 0.00 0.00 39 1009.2
20260504232803 25 165 8.0 22.5 0.00 0.00 0.00 38 1009.1
20260504232045 25 238 8.0 19.3 0.00 0.00 0.00 38 1009.2
20260504231541 26 240 8.0 20.9 0.00 0.00 0.00 37 1009.1
20260504231041 26 265 6.4 20.9 0.00 0.00 0.00 37 1009.2
20260504230806 26 184 8.0 17.7 0.00 0.00 0.00 37 1009.2
20260504230038 26 115 9.7 20.9 0.00 0.00 0.00 37 1009.1
20260504225805 26 271 9.7 29.0 0.00 0.00 0.00 36 1009.1
20260504225037 26 250 9.7 29.0 0.00 0.00 0.00 36 1009.1
20260504224538 26 182 9.7 25.7 0.00 0.00 0.00 36 1009.2
20260504224038 26 164 9.7 24.1 0.00 0.00 0.00 37 1009.2
20260504223535 26 153 9.7 24.1 0.00 0.00 0.00 36 1009.1
20260504223259 26 277 9.7 24.1 0.00 0.00 0.00 36 1009.1
20260504222536 26 237 9.7 24.1 0.00 0.00 0.00 36 1009.2
20260504222034 27 232 9.7 24.1 0.00 0.00 0.00 34 1009.1
20260504221533 27 194 9.7 29.0 0.00 0.00 0.00 35 1009.2
20260504221033 27 292 8.0 29.0 0.00 0.00 0.00 35 1009.2
20260504220532 27 200 8.0 20.9 0.00 0.00 0.00 36 1009.1
20260504220025 27 321 9.7 20.9 0.00 0.00 0.00 36 1009.1
20260504215750 27 306 9.7 22.5 0.00 0.00 0.00 35 1009.1
20260504215013 27 218 9.7 22.5 0.00 0.00 0.00 35 1009.1
20260504214739 27 212 9.7 24.1 0.00 0.00 0.00 36 1009.1
20260504214230 27 276 9.7 24.1 0.00 0.00 0.00 35 1009.1
20260504213456 27 290 9.7 24.1 0.00 0.00 0.00 35 1009.1
20260504212952 27 194 9.7 24.1 0.00 0.00 0.00 36 1009.1
20260504212453 27 351 8.0 24.1 0.00 0.00 0.00 35 1009.1
20260504211952 27 159 9.7 22.5 0.00 0.00 0.00 35 1009.1
20260504211452 27 253 12.9 22.5 0.00 0.00 0.00 35 1009.3
20260504210953 27 254 11.3 25.7 0.00 0.00 0.00 34 1009.3
20260504210452 27 188 9.7 25.7 0.00 0.00 0.00 34 1009.3
20260504205952 27 301 9.7 24.1 0.00 0.00 0.00 36 1009.4
20260504205713 27 217 8.0 25.7 0.00 0.00 0.00 36 1009.3
20260504204956 27 355 9.7 25.7 0.00 0.00 0.00 36 1009.3
20260504204822 27 213 9.7 27.4 0.00 0.00 0.00 36 1009.5
20260504204656 27 237 11.3 27.4 0.00 0.00 0.00 36 1009.5
20260504203211 27 273 9.7 24.1 0.00 0.00 0.00 35 1009.6
20260504202450 27 244 8.0 24.1 0.00 0.00 0.00 35 1009.8
20260504202213 27 233 8.0 24.1 0.00 0.00 0.00 35 1009.8
20260504201709 27 298 9.7 24.1 0.00 0.00 0.00 36 1009.9
20260504200939 27 250 9.7 24.1 0.00 0.00 0.00 35 1010.0
20260504200434 27 236 11.3 30.6 0.00 0.00 0.00 36 1010.1
20260504195927 27 205 11.3 30.6 0.00 0.00 0.00 36 1010.2
20260504195653 27 250 11.3 29.0 0.00 0.00 0.00 36 1010.2
20260504194918 27 198 9.7 25.7 0.00 0.00 0.00 35 1010.2
20260504194416 27 164 8.0 25.7 0.00 0.00 0.00 35 1010.5
20260504193915 27 171 8.0 20.9 0.00 0.00 0.00 38 1010.4
20260504193416 27 190 9.7 27.4 0.00 0.00 0.00 37 1010.5
20260504192946 27 254 11.3 25.7 0.00 0.00 0.00 36 1010.6
20260504192936 27 256 9.7 27.4 0.00 0.00 0.00 36 1010.5
20260504191914 27 178 11.3 25.7 0.00 0.00 0.00 36 1010.7
20260504191633 27 223 9.7 19.3 0.00 0.00 0.00 38 1010.7
20260504190914 27 259 9.7 20.9 0.00 0.00 0.00 38 1010.8
20260504190414 27 165 9.7 27.4 0.00 0.00 0.00 41 1010.9
20260504185915 27 160 9.7 27.4 0.00 0.00 0.00 39 1011.0
20260504185414 27 221 9.7 20.9 0.00 0.00 0.00 39 1011.1
20260504184914 26 280 9.7 29.0 0.00 0.00 0.00 40 1011.0
20260504184414 26 123 11.3 29.0 0.00 0.00 0.00 38 1011.1
20260504183916 26 286 11.3 29.0 0.00 0.00 0.00 41 1011.2
20260504183409 26 152 11.3 30.6 0.00 0.00 0.00 40 1011.2
20260504182903 26 254 11.3 30.6 0.00 0.00 0.00 39 1011.3
20260504182400 26 232 9.7 29.0 0.00 0.00 0.00 40 1011.4
20260504182139 26 306 11.3 29.0 0.00 0.00 0.00 38 1011.5
20260504181402 26 249 11.3 24.1 0.00 0.00 0.00 38 1011.6
20260504180900 26 279 11.3 22.5 0.00 0.00 0.00 40 1011.4
20260504180402 26 238 9.7 20.9 0.00 0.00 0.00 40 1011.6
20260504180127 27 274 8.0 22.5 0.00 0.00 0.00 39 1011.6
20260504175359 27 194 8.0 22.5 0.00 0.00 0.00 40 1011.7
20260504174900 26 169 8.0 29.0 0.00 0.00 0.00 41 1011.7
20260504174626 26 176 9.7 29.0 0.00 0.00 0.00 41 1011.8
20260504173901 26 190 9.7 22.5 0.00 0.00 0.00 40 1011.9
20260504173400 26 255 9.7 22.5 0.00 0.00 0.00 41 1012.0
20260504172900 25 194 9.7 24.1 0.00 0.00 0.00 41 1012.1
20260504172359 26 232 9.7 24.1 0.00 0.00 0.00 42 1012.2
20260504171901 26 271 11.3 24.1 0.00 0.00 0.00 44 1012.1
20260504171401 26 288 9.7 24.1 0.00 0.00 0.00 43 1012.3
20260504170855 26 261 8.0 20.9 0.00 0.00 0.00 45 1012.3
20260504170352 26 294 8.0 19.3 0.00 0.00 0.00 45 1012.4
20260504160348 25 236 9.7 29.0 0.00 0.00 0.00 49 1013.1
20260504151109 24 240 6.4 17.7 0.00 0.00 0.00 52 1013.4
20260504150826 23 246 6.4 16.1 0.00 0.00 0.00 51 1013.5
20260504140839 22 196 3.2 11.3 0.00 0.00 0.00 57 1013.6
20260504140334 21 318 4.8 11.3 0.00 0.00 0.00 59 1013.7
20260504130326 19 185 3.2 9.7 0.00 0.00 0.00 64 1013.3
20260504110303 15 159 1.6 6.4 0.00 0.00 0.00 73 1012.6
20260504100213 15 153 1.6 9.7 0.00 0.00 0.00 70 1012.8
20260504081633 15 138 1.6 3.2 0.00 0.00 0.00 67 1013.1
20260504081135 15 138 1.6 6.4 0.00 0.00 0.00 66 1013.1
20260504080632 15 202 1.6 6.4 0.00 0.00 0.00 66 1013.2
20260504080130 15 190 1.6 9.7 0.00 0.00 0.00 66 1013.2
20260504070120 15 214 1.6 8.0 0.00 0.00 0.00 64 1013.7
20260504045540 16 245 1.6 6.4 0.00 0.00 0.00 60 1014.6
20260504045038 16 216 1.6 8.0 0.00 0.00 0.00 60 1014.5
20260504044803 16 200 1.6 8.0 0.00 0.00 0.00 59 1014.6
20260504044037 16 271 1.6 6.4 0.00 0.00 0.00 59 1014.6
20260504043541 16 163 1.6 6.4 0.00 0.00 0.00 59 1014.7
20260504043035 16 189 1.6 6.4 0.00 0.00 0.00 59 1014.7
20260504042533 16 147 1.6 6.4 0.00 0.00 0.00 59 1014.7
20260504042034 16 169 3.2 8.0 0.00 0.00 0.00 58 1014.7
20260504041534 16 209 1.6 8.0 0.00 0.00 0.00 58 1014.7
20260504041032 16 185 1.6 4.8 0.00 0.00 0.00 58 1014.7
20260504040758 16 196 1.6 4.8 0.00 0.00 0.00 58 1014.7
20260504040031 16 180 1.6 6.4 0.00 0.00 0.00 58 1014.7
20260504035529 16 152 1.6 6.4 0.00 0.00 0.00 58 1014.7
20260504035031 16 183 3.2 6.4 0.00 0.00 0.00 58 1014.8
20260504034528 16 193 1.6 6.4 0.00 0.00 0.00 58 1014.7
20260504034027 16 181 1.6 6.4 0.00 0.00 0.00 58 1014.8
20260504033522 16 155 1.6 6.4 0.00 0.00 0.00 58 1014.9
20260504033016 16 131 1.6 6.4 0.00 0.00 0.00 58 1015.0
20260504032510 15 200 1.6 6.4 0.00 0.00 0.00 58 1015.0
20260504032226 15 173 1.6 6.4 0.00 0.00 0.00 58 1015.1
20260504031500 15 149 1.6 6.4 0.00 0.00 0.00 58 1015.2
20260504030959 15 176 0.0 4.8 0.00 0.00 0.00 58 1015.3
20260504030459 15 176 0.0 3.2 0.00 0.00 0.00 58 1015.3
20260504025959 15 176 0.0 1.6 0.00 0.00 0.00 57 1015.3
20260504025500 16 176 0.0 1.6 0.00 0.00 0.00 57 1015.3
20260504025000 16 176 0.0 1.6 0.00 0.00 0.00 58 1015.3
20260504024501 16 176 0.0 1.6 0.00 0.00 0.00 57 1015.2
20260504024000 16 176 0.0 1.6 0.00 0.00 0.00 57 1015.2
20260504023500 16 176 0.0 1.6 0.00 0.00 0.00 56 1015.3
20260504022957 16 176 0.0 1.6 0.00 0.00 0.00 57 1015.2
20260504022501 16 176 0.0 1.6 0.00 0.00 0.00 56 1015.1
20260504021957 16 176 0.0 1.6 0.00 0.00 0.00 55 1015.1
20260504021458 16 176 0.0 1.6 0.00 0.00 0.00 55 1015.1
20260504020957 16 176 0.0 1.6 0.00 0.00 0.00 55 1014.9
20260504020456 16 176 0.0 3.2 0.00 0.00 0.00 55 1014.9
20260504015957 17 176 0.0 3.2 0.00 0.00 0.00 55 1014.9
20260504015734 17 176 0.0 3.2 0.00 0.00 0.00 54 1014.8
20260504014958 17 176 1.6 1.6 0.00 0.00 0.00 53 1014.8
20260504014458 17 176 0.0 1.6 0.00 0.00 0.00 53 1014.8
20260504014220 17 176 0.0 1.6 0.00 0.00 0.00 51 1014.7
20260504013501 18 176 0.0 1.6 0.00 0.00 0.00 51 1014.8
20260504012959 18 176 0.0 1.6 0.00 0.00 0.00 49 1014.7
20260504012501 18 176 0.0 1.6 0.00 0.00 0.00 49 1014.7
20260504011957 18 176 0.0 1.6 0.00 0.00 0.00 48 1014.7
20260504011458 19 176 0.0 1.6 0.00 0.00 0.00 47 1014.7
20260504010956 19 176 0.0 1.6 0.00 0.00 0.00 46 1014.7
20260504010458 20 176 0.0 1.6 0.00 0.00 0.00 45 1014.7
20260504005956 20 176 1.6 3.2 0.00 0.00 0.00 44 1014.6
20260504005454 20 176 1.6 4.8 0.00 0.00 0.00 43 1014.6
20260504005447 20 176 1.6 4.8 0.00 0.00 0.00 43 1014.7
20260504004456 21 176 0.0 4.8 0.00 0.00 0.00 41 1014.7
20260504003952 21 140 1.6 4.8 0.00 0.00 0.00 40 1014.7
20260504003456 21 140 1.6 6.4 0.00 0.00 0.00 40 1014.6
20260504002953 21 179 1.6 6.4 0.00 0.00 0.00 39 1014.6
20260504002439 22 177 1.6 4.8 0.00 0.00 0.00 38 1014.7
20260504001933 22 204 1.6 6.4 0.00 0.00 0.00 38 1014.6
20260504001431 22 234 1.6 6.4 0.00 0.00 0.00 37 1014.7
20260504000927 22 157 3.2 11.3 0.00 0.00 0.00 36 1014.7
20260504000427 22 260 3.2 11.3 0.00 0.00 0.00 35 1014.7
20260503235927 23 206 3.2 8.0 0.00 0.00 0.00 35 1014.7
20260503235425 23 206 3.2 12.9 0.00 0.00 0.00 35 1014.8